Regional Weather Roundup
Issued by NWS

Home | Current Version | Previous Version | Text Only | Print | Product List | Glossary On
Versions: 1 2 3 4 5 6 7 8 9 10 11 12 13 14 15 16 17 18 19 20 21 22 23 24 25 26 27 28
000
ASUS44 KBMX 292010
RWRAL

ALABAMA REGIONAL WEATHER ROUNDUP
NATIONAL WEATHER SERVICE BIRMINGHAM AL
300 PM CDT MON MAY 29 2017

NOTE: "FAIR" INDICATES FEW OR NO CLOUDS BELOW 12,000 FEET
WITH NO SIGNIFICANT WEATHER AND/OR OBSTRUCTIONS TO VISIBILITY.

THE REMARK "TC" DENOTES TEMPERATURE IN DEGREES CELSIUS.

ALZ001>011-014-016>018-020-292100-
NORTH ALABAMA

CITY           SKY/WX    TMP DP  RH WIND       PRES   REMARKS
MUSCLE SHOALS  PTSUNNY   81  67  62 SW5       30.00F
HUNTSVILLE     CLOUDY    79  68  69 SW5       30.00F THUNDER
DECATUR        CLOUDY    79  68  69 SW5       30.00F
HALEYVILLE     FAIR      78  67  68 SW9       30.03F
GADSDEN        MOSUNNY   76  67  73 VRB3      30.01F
$$

ALZ012-013-022-023-030>036-040>044-292100-
WEST CENTRAL ALABAMA

CITY           SKY/WX    TMP DP  RH WIND       PRES   REMARKS
TUSCALOOSA     CLOUDY    81  67  62 W7        30.00S
$$

ALZ015-024>027-033>036-040>044-292100-
CENTRAL ALABAMA

CITY           SKY/WX    TMP DP  RH WIND       PRES   REMARKS
BIRMINGHAM     PTSUNNY   81  67  62 SW5       30.01F
MONTGOMERY     CLOUDY    83  67  58 SW5       30.00F
SHELBY CO ARPT MOSUNNY   76  72  87 CALM      30.00S
MAXWELL AFB    PTSUNNY   81  68  64 W5        29.99F
GREENVILLE     FAIR      86  65  49 W10       30.00S
$$

ALZ019-021-028-029-037-038-045>048-292100-
EAST CENTRAL ALABAMA

CITY           SKY/WX    TMP DP  RH WIND       PRES   REMARKS
ANNISTON       CLOUDY    73  69  87 CALM      30.01F
ALEXANDER CITY CLOUDY    74  69  86 CALM      30.03F
AUBURN         CLOUDY    75  72  90 VRB3      30.04F
$$

ALZ051>064-292100-
SOUTHWEST ALABAMA

CITY           SKY/WX    TMP DP  RH WIND       PRES   REMARKS
MOBILE         CLOUDY    86  69  56 S7        30.01F HX  90
BROOKLEY FIELD CLOUDY    85  75  72 SE9       30.02F HX  93
EVERGREEN      MOSUNNY   86  68  54 SW9       30.01F
$$

ALZ049-050-065>069-292100-
SOUTHEAST ALABAMA

CITY           SKY/WX    TMP DP  RH WIND       PRES   REMARKS
DOTHAN         MOSUNNY   88  71  57 W15       30.05F HX  94
OZARK          MOSUNNY   87  71  59 W6        30.01F HX  93
TROY           MOSUNNY   84  70  62 SW5       30.01F
EUFAULA        FAIR      86  73  65 VRB7      30.00F HX  93
$$




USA.gov is the U.S. government's official web portal to all federal, state and local government web resources and services.